Weather Roundup
Issued by NWS

Home | Current Version | Previous Version | Text Only | Print | Product List | Glossary On
Versions: 1 2 3 4 5 6 7 8 9 10 11 12 13 14 15 16 17 18 19 20 21 22 23 24 25 26 27 28 29 30 31 32 33 34 35 36 37 38 39 40 41 42 43 44 45 46 47 48 49 50
000
NZUS93 KARX 290559
HRRWXR

CURRENT HOURLY OBSERVATIONS ACROSS
MUCH OF THE UPPER MISSISSIPPI VALLEY
NATIONAL WEATHER SERVICE LA CROSSE WI
1200 AM CST THU JAN 29 2015


...SOUTHEAST MINNESOTA...


CITY           SKY/WX    TMP DP  RH WIND       PRES   REMARKS
ROCHESTER      MIX PCPN  31  29  92 N9        29.80S FOG     WCI  23
ROCHESTER/MAYO CLOUDY    31  31  96 NW3       29.81R
WINONA         CLOUDY    34  28  80 CALM      29.82R
AUSTIN         CLOUDY    32  30  93 NW8       29.81R FOG     WCI  25
ALBERT LEA     CLOUDY    34  34 100 N10G16    29.83R FOG     WCI  26
DODGE CENTER   FOG       32  32 100 N8        29.81R VSB 1/2 WCI  25
PRESTON        CLOUDY    30  28  93 N7        29.79R FOG     WCI  23
OWATONNA       CLOUDY    32  30  93 NW13      29.84R FOG     WCI  22
FARIBAULT      CLOUDY    30  30 100 NW10      29.86R FOG     WCI  21
$$

...ELSEWHERE IN MINNESOTA...


CITY           SKY/WX    TMP DP  RH WIND       PRES   REMARKS
MINNEAPOLIS    CLOUDY    30  28  92 NW9       29.87R FOG     WCI  22
INTNL FALLS    CLOUDY    28  24  85 NW13      29.87R WCI  17
DULUTH         FRZ DRZL  28  25  88 NW9       29.81R FOG     WCI  19
RED WING       CLOUDY    30  30 100 NW5       29.84R FOG     WCI  25
REDWOOD FALLS  CLOUDY    34  32  92 NW13G23   29.93R FOG     WCI  25
MANKATO        CLOUDY    32  28  86 NW15      29.88R WCI  22
WORTHINGTON    CLOUDY   N/A N/A N/A N30G36    29.93R
FAIRMONT       CLOUDY    34  28  80 NW20G26   29.87R WCI  22
$$

...SOUTHWEST WISCONSIN...


CITY           SKY/WX    TMP DP  RH WIND       PRES   REMARKS
LA CROSSE      CLOUDY    33  27  78 NW3       29.80S
PRAIRIE DU CHI CLOUDY    33  28  82 CALM      29.76S
BOSCOBEL       CLOUDY    34  28  79 N3        29.77F
LONE ROCK      NOT AVBL
PLATTEVILLE    CLOUDY    30  28  92 NE6       29.73F WCI  24
FORT MC COY    CLOUDY    31  28  88 NE5       29.81S FOG     WCI  26
CAMP DOUGLAS   MIX PCPN  28  28 100 N3        29.79F
VIROQUA        CLOUDY    31  29  94 E3        29.76F
WIS DELLS      NOT AVBL
$$

...ELSEWHERE IN WISCONSIN...


CITY           SKY/WX    TMP DP  RH WIND       PRES   REMARKS
MILWAUKEE      LGT RAIN  33  23  66 S10       29.81F WCI  25
MADISON        CLOUDY    32  25  75 S5        29.77F WCI  27
GREEN BAY      CLOUDY    32  25  75 S8        29.82F WCI  25
EAU CLAIRE     NOT AVBL
BLACK RVR FLS  CLOUDY    29  26  86 CALM      29.81R FOG
MEDFORD        CLOUDY    25  23  91 S6        29.78F FOG     WCI  18
WAUSAU         CLOUDY    26  23  88 SE5       29.78F FOG     WCI  20
WIS RAPIDS     CLOUDY    27  22  81 CALM      29.81F
MARSHFIELD     CLOUDY    27  24  89 E3        29.79F FOG
RICE LAKE      FOG       28  27  96 CALM      29.85R VSB 1/2
$$

...NORTHEAST IOWA...


CITY           SKY/WX    TMP DP  RH WIND       PRES   REMARKS
DECORAH        CLOUDY    32  28  86 N5        29.75S WCI  27
MASON CITY     CLOUDY    33  32  96 N18       29.81R FOG     WCI  22
CHARLES CITY   CLOUDY    32  32 100 N7        29.78R FOG     WCI  26
OELWEIN        CLOUDY    32  30  93 NE7       29.74R WCI  26
$$

...ELSEWHERE IN IOWA...


CITY           SKY/WX    TMP DP  RH WIND       PRES   REMARKS
DES MOINES     CLOUDY    38  33  82 N28G36    29.78R WCI  26
IOWA CITY      CLEAR     35  31  85 CALM      29.69S
FORT DODGE     CLOUDY    34  30  86 N12G24    29.86R WCI  25
$$

...NORTHERN ILLINOIS...


CITY           SKY/WX    TMP DP  RH WIND       PRES   REMARKS
CHICAGO-OHARE  CLOUDY    33  26  75 S17       29.80F WCI  22
CHICAGO-MIDWAY CLOUDY    36  25  64 S15       29.82F WCI  27
MOLINE         PTCLDY    39  31  72 S9        29.68F WCI  33
ROCKFORD       CLOUDY    34  27  75 S15       29.77F WCI  24
PEORIA         MOCLDY    39  32  76 S18       29.74F WCI  30
$$

NOTE: "FAIR" INDICATES FEW OR NO CLOUDS BELOW 12,000 FEET WITH NO
SIGNIFICANT WEATHER AND/OR OBSTRUCTIONS TO VISIBILITY. WIND
SPEEDS ARE IN MILES-PER-HOUR.



USA.gov is the U.S. government's official web portal to all federal, state and local government web resources and services.